Location: Archemont
(49.1579°N, 1.7598°E)
Time: 11:18:36
(UTC+00:00)

deb Explorer IX - Pass Details

Date: 20 April 2024
Orbit: 513 x 891 km, 38.7° (Epoch: 23 May)

Event Time Altitude Azimuth Distance (km) Brightness Sun altitude
Rises 12:13:08 0° 240° (WSW) 3,440 ? 52.4°
Reaches altitude 10° 12:15:57 10° 230° (SW) 2,537 ? 52.3°
Maximum altitude 12:21:09 30° 172° (S) 1,568 ? 52.1°
Drops below altitude 10° 12:26:25 10° 114° (ESE) 2,568 ? 52.0°
Sets 12:29:16 0° 104° (ESE) 3,489 ? 51.8°
